Time,TemperatureF,DewpointF,PressureIn,WindDirection,WindDirectionDegrees,WindSpeedMPH,WindSpeedGustMPH,Humidity,HourlyPrecipIn,Conditions,Clouds,dailyrainin,SoftwareType,DateUTC
2016-02-06 00:01:00,17.8,14.5,30.22,ESE,123,0.0,0.0,87,0.00,,,0.00,meteobridge,2016-02-06 05:01:00,
2016-02-06 00:06:00,17.2,14.4,30.22,ESE,123,0.0,0.0,88,0.00,,,0.00,meteobridge,2016-02-06 05:06:00,
2016-02-06 00:11:00,17.2,14.5,30.22,WNW,282,0.0,0.0,89,0.00,,,0.00,meteobridge,2016-02-06 05:11:00,
2016-02-06 00:21:00,18.1,15.3,30.22,NW,309,0.0,0.0,88,0.00,,,0.00,meteobridge,2016-02-06 05:21:00,
2016-02-06 00:26:00,18.1,15.3,30.23,NW,309,0.0,0.0,88,0.00,,,0.00,meteobridge,2016-02-06 05:26:00,
2016-02-06 00:31:00,18.0,15.1,30.23,NW,309,0.0,0.0,88,0.00,,,0.00,meteobridge,2016-02-06 05:31:00,
2016-02-06 00:36:00,17.4,14.5,30.24,SSW,203,0.0,0.0,88,0.00,,,0.00,meteobridge,2016-02-06 05:36:00,
2016-02-06 00:41:00,17.1,14.2,30.24,SSW,203,0.0,0.0,88,0.00,,,0.00,meteobridge,2016-02-06 05:41:00,
2016-02-06 00:46:00,16.5,13.8,30.24,SSW,203,0.0,0.0,89,0.00,,,0.00,meteobridge,2016-02-06 05:46:00,
2016-02-06 00:51:00,16.5,13.8,30.24,SSW,203,0.0,0.0,89,0.00,,,0.00,meteobridge,2016-02-06 05:51:00,
2016-02-06 00:56:00,16.2,13.8,30.24,SSW,203,0.0,0.0,90,0.00,,,0.00,meteobridge,2016-02-06 05:56:00,
2016-02-06 01:01:00,15.8,13.5,30.24,SSW,203,0.0,0.0,90,0.00,,,0.00,meteobridge,2016-02-06 06:01:00,
2016-02-06 01:06:00,15.4,13.1,30.23,SSW,203,0.0,0.0,90,0.00,,,0.00,meteobridge,2016-02-06 06:06:00,
2016-02-06 01:11:00,15.3,12.9,30.23,SSW,203,0.0,0.0,90,0.00,,,0.00,meteobridge,2016-02-06 06:11:00,
2016-02-06 01:16:00,15.3,12.9,30.24,WNW,287,0.0,0.0,90,0.00,,,0.00,meteobridge,2016-02-06 06:16:00,
2016-02-06 01:21:00,15.3,13.1,30.24,NNW,338,0.0,0.0,91,0.00,,,0.00,meteobridge,2016-02-06 06:21:00,
2016-02-06 01:26:00,15.1,12.7,30.24,WNW,285,0.0,0.0,90,0.00,,,0.00,meteobridge,2016-02-06 06:26:00,
2016-02-06 01:36:00,14.9,12.7,30.24,WNW,297,0.0,0.0,91,0.00,,,0.00,meteobridge,2016-02-06 06:36:00,
2016-02-06 01:41:00,14.7,12.6,30.25,WNW,297,0.0,0.0,91,0.00,,,0.00,meteobridge,2016-02-06 06:41:00,
2016-02-06 01:46:00,14.5,12.4,30.25,WNW,297,0.0,0.0,91,0.00,,,0.00,meteobridge,2016-02-06 06:46:00,
2016-02-06 01:51:00,14.5,12.6,30.25,WNW,297,0.0,0.0,92,0.00,,,0.00,meteobridge,2016-02-06 06:51:00,
2016-02-06 01:56:00,14.4,12.4,30.25,WNW,297,0.0,0.0,92,0.00,,,0.00,meteobridge,2016-02-06 06:56:00,
2016-02-06 02:01:00,14.2,12.0,30.24,NNW,333,0.0,0.0,91,0.00,,,0.00,meteobridge,2016-02-06 07:01:00,
2016-02-06 02:06:00,14.0,11.8,30.24,NNW,333,0.0,0.0,91,0.00,,,0.00,meteobridge,2016-02-06 07:06:00,
2016-02-06 02:16:00,13.8,11.7,30.25,NNW,333,0.0,0.0,91,0.00,,,0.00,meteobridge,2016-02-06 07:16:00,
2016-02-06 02:21:00,13.6,11.5,30.25,NNW,333,0.0,0.0,91,0.00,,,0.00,meteobridge,2016-02-06 07:21:00,
2016-02-06 02:26:00,13.5,11.3,30.26,NNW,333,0.0,0.0,91,0.00,,,0.00,meteobridge,2016-02-06 07:26:00,
2016-02-06 02:31:00,13.3,11.1,30.26,NNW,333,0.0,0.0,91,0.00,,,0.00,meteobridge,2016-02-06 07:31:00,
2016-02-06 02:36:00,13.3,11.5,30.26,WNW,300,0.0,0.0,92,0.00,,,0.00,meteobridge,2016-02-06 07:36:00,
2016-02-06 02:41:00,13.3,11.5,30.26,WNW,300,0.0,0.0,92,0.00,,,0.00,meteobridge,2016-02-06 07:41:00,
2016-02-06 02:46:00,13.3,11.5,30.26,WNW,300,0.0,0.0,92,0.00,,,0.00,meteobridge,2016-02-06 07:46:00,
2016-02-06 02:51:00,13.3,11.5,30.26,WNW,299,0.0,0.0,92,0.00,,,0.00,meteobridge,2016-02-06 07:51:00,
2016-02-06 02:56:00,12.9,11.1,30.26,WNW,300,0.0,0.0,92,0.00,,,0.00,meteobridge,2016-02-06 07:56:00,
2016-02-06 03:06:00,12.7,10.9,30.27,WNW,300,0.0,0.0,92,0.00,,,0.00,meteobridge,2016-02-06 08:06:00,
2016-02-06 03:11:00,12.6,10.8,30.27,WNW,300,0.0,0.0,92,0.00,,,0.00,meteobridge,2016-02-06 08:11:00,
2016-02-06 03:16:00,12.4,10.6,30.27,WNW,300,0.0,0.0,92,0.00,,,0.00,meteobridge,2016-02-06 08:16:00,
2016-02-06 03:21:00,12.6,10.8,30.27,WNW,300,0.0,0.0,92,0.00,,,0.00,meteobridge,2016-02-06 08:21:00,
2016-02-06 03:26:00,12.4,10.6,30.27,WNW,300,0.0,0.0,92,0.00,,,0.00,meteobridge,2016-02-06 08:26:00,
2016-02-06 03:31:00,12.4,10.6,30.27,WNW,300,0.0,0.0,92,0.00,,,0.00,meteobridge,2016-02-06 08:31:00,
2016-02-06 03:36:00,12.4,10.6,30.27,WNW,282,0.0,0.0,92,0.00,,,0.00,meteobridge,2016-02-06 08:36:00,
2016-02-06 03:46:00,12.6,10.8,30.27,WNW,282,0.0,0.0,92,0.00,,,0.00,meteobridge,2016-02-06 08:46:00,
2016-02-06 03:51:00,12.6,10.8,30.28,WNW,282,0.0,0.0,92,0.00,,,0.00,meteobridge,2016-02-06 08:51:00,
2016-02-06 03:56:00,12.4,10.6,30.28,WNW,283,0.0,0.0,92,0.00,,,0.00,meteobridge,2016-02-06 08:56:00,
2016-02-06 04:01:00,12.0,10.2,30.28,WNW,283,0.0,0.0,92,0.00,,,0.00,meteobridge,2016-02-06 09:01:00,
2016-02-06 04:06:00,12.0,10.2,30.29,NNE,27,0.0,0.0,92,0.00,,,0.00,meteobridge,2016-02-06 09:06:00,
2016-02-06 04:11:00,12.0,10.2,30.29,NNE,27,0.0,0.0,92,0.00,,,0.00,meteobridge,2016-02-06 09:11:00,
2016-02-06 04:16:00,12.0,10.2,30.29,NNE,27,0.0,0.0,92,0.00,,,0.00,meteobridge,2016-02-06 09:16:00,
2016-02-06 04:21:00,11.8,10.0,30.29,NNE,27,0.0,0.0,92,0.00,,,0.00,meteobridge,2016-02-06 09:21:00,
2016-02-06 04:26:00,12.0,10.2,30.29,NNE,19,0.0,0.0,92,0.00,,,0.00,meteobridge,2016-02-06 09:26:00,
2016-02-06 04:31:00,12.4,10.8,30.29,North,349,0.0,0.0,93,0.00,,,0.00,meteobridge,2016-02-06 09:31:00,
2016-02-06 04:36:00,12.6,10.9,30.30,NNW,336,0.0,0.0,93,0.00,,,0.00,meteobridge,2016-02-06 09:36:00,
2016-02-06 04:41:00,12.4,10.8,30.30,NNW,336,0.0,0.0,93,0.00,,,0.00,meteobridge,2016-02-06 09:41:00,
2016-02-06 04:46:00,12.2,10.4,30.30,NNW,335,0.0,0.0,92,0.00,,,0.00,meteobridge,2016-02-06 09:46:00,
2016-02-06 04:51:00,11.8,10.0,30.30,NNW,336,0.0,0.0,92,0.00,,,0.00,meteobridge,2016-02-06 09:51:00,
2016-02-06 04:56:00,11.7,9.9,30.30,NNW,336,0.0,0.0,92,0.00,,,0.00,meteobridge,2016-02-06 09:56:00,
2016-02-06 05:01:00,11.7,9.9,30.30,SE,135,0.0,0.0,92,0.00,,,0.00,meteobridge,2016-02-06 10:01:00,
2016-02-06 05:06:00,11.5,9.7,30.30,SE,135,0.0,0.0,92,0.00,,,0.00,meteobridge,2016-02-06 10:06:00,
2016-02-06 05:11:00,11.1,9.3,30.30,SE,135,0.0,0.0,92,0.00,,,0.00,meteobridge,2016-02-06 10:11:00,
2016-02-06 05:16:00,10.9,9.1,30.30,SE,135,0.0,0.0,92,0.00,,,0.00,meteobridge,2016-02-06 10:16:00,
2016-02-06 05:21:00,10.9,9.1,30.30,SE,135,0.0,0.0,92,0.00,,,0.00,meteobridge,2016-02-06 10:21:00,
2016-02-06 05:26:00,10.9,9.1,30.30,SE,135,0.0,0.0,92,0.00,,,0.00,meteobridge,2016-02-06 10:26:00,
2016-02-06 05:31:00,10.8,9.0,30.30,SE,135,0.0,0.0,92,0.00,,,0.00,meteobridge,2016-02-06 10:31:00,